[TLELIST] Archives

 

[list_settings.list_name] Current TLEs

May 30th 2011 PDT

HST 1 20580U 90037B 11150.23651044 .00000919 00000-0 56931-4 0 7723 2 20580 028.4692 133.7068 0003168 285.6423 074.3770 15.01368519956955 ISS (ZARYA) 1 25544U 98067A 11150.43845483 .00033403 00000-0 21839-3 0 4395 2 25544 051.6416 251.7030 0004486 345.5745 113.4566 15.75487453718111 CXO 1 25867U 99040B 11150.45833333 -.00000322 00000-0 00000+0 0 6107 2 25867 069.2489 032.9120 8598306 276.6072 356.6462 00.37802670 7703 ____________________________________________________________________ These 2-Line ...Continue Reading

[list_settings.list_name] Current TLEs

May 29th 2011 PDT

HST 1 20580U 90037B 11149.23938621 .00001488 00000-0 10000-3 0 7717 2 20580 028.4688 140.2227 0003270 270.8930 089.1399 15.01367570956804 ISS (ZARYA) 1 25544U 98067A 11149.16515108 .00029872 00000-0 19379-3 0 4336 2 25544 051.6510 258.2621 0004227 337.1722 095.3654 15.75729471717911 CXO 1 25867U 99040B 11150.45833333 -.00000322 00000-0 00000+0 0 6107 2 25867 069.2489 032.9120 8598306 276.6072 356.6462 00.37802670 7703 ____________________________________________________________________ These 2-Line ...Continue Reading

[list_settings.list_name] Current TLEs

May 28th 2011 PDT

HST 1 20580U 90037B 11147.24512652 .00000545 00000-0 28585-4 0 7708 2 20580 028.4693 153.2495 0003337 256.1202 103.8907 15.01364093956507 ISS (ZARYA) 1 25544U 98067A 11148.46221545 .00014573 00000-0 97218-4 0 4305 2 25544 051.6471 261.8783 0003865 329.7573 072.6549 15.75638675717808 CXO 1 25867U 99040B 11147.83333333 -.00000242 00000-0 00000+0 0 6099 2 25867 069.2296 033.0960 8599497 276.5966 359.2620 00.37806878 7693 ____________________________________________________________________ These 2-Line ...Continue Reading

[list_settings.list_name] Current TLEs

May 27th 2011 PDT

HST 1 20580U 90037B 11147.24512652 .00000545 00000-0 28585-4 0 7708 2 20580 028.4693 153.2495 0003337 256.1202 103.8907 15.01364093956507 ISS (ZARYA) 1 25544U 98067A 11147.46052164 .00025032 00000-0 16414-3 0 4268 2 25544 051.6489 267.0322 0003662 327.5611 149.1569 15.75592826717649 CXO 1 25867U 99040B 11147.83333333 -.00000242 00000-0 00000+0 0 6099 2 25867 069.2296 033.0960 8599497 276.5966 359.2620 00.37806878 7693 ____________________________________________________________________ These 2-Line ...Continue Reading

[list_settings.list_name] Current TLEs

May 26th 2011 PDT

HST 1 20580U 90037B 11144.25373681 .00000648 00000-0 36347-4 0 7690 2 20580 028.4697 172.7905 0003576 224.3693 135.6442 15.01362480956054 ISS (ZARYA) 1 25544U 98067A 11146.36888985 .00025753 00000-0 16912-3 0 4201 2 25544 051.6504 272.6534 0003891 329.5510 071.2188 15.75539412717473 CXO 1 25867U 99040B 11147.83333333 -.00000242 00000-0 00000+0 0 6099 2 25867 069.2296 033.0960 8599497 276.5966 359.2620 00.37806878 7693 ____________________________________________________________________ These 2-Line ...Continue Reading

[list_settings.list_name] Current TLEs

May 25th 2011 PDT

HST 1 20580U 90037B 11144.25373681 .00000648 00000-0 36347-4 0 7690 2 20580 028.4697 172.7905 0003576 224.3693 135.6442 15.01362480956054 ISS (ZARYA) 1 25544U 98067A 11145.15767361 .00017590 00000-0 11731-3 0 4148 2 25544 051.6440 278.8827 0003980 320.8728 045.4509 15.75467017717289 CXO 1 25867U 99040B 11137.29107148 .00000000 00000-0 10000-3 0 6086 2 25867 069.1484 033.7317 8586353 276.5020 004.3795 00.37807590 7651 ____________________________________________________________________ These 2-Line ...Continue Reading

[list_settings.list_name] Current TLEs

May 24th 2011 PDT

HST 1 20580U 90037B 11144.25373681 .00000648 00000-0 36347-4 0 7690 2 20580 028.4697 172.7905 0003576 224.3693 135.6442 15.01362480956054 ISS (ZARYA) 1 25544U 98067A 11144.34754516 .00016226 00000-0 10859-3 0 4095 2 25544 051.6466 283.0478 0003209 308.9769 139.5398 15.75461006717152 CXO 1 25867U 99040B 11137.29107148 .00000000 00000-0 10000-3 0 6086 2 25867 069.1484 033.7317 8586353 276.5020 004.3795 00.37807590 7651 ____________________________________________________________________ These 2-Line ...Continue Reading

[list_settings.list_name] Current TLEs

May 23rd 2011 PDT

HST 1 20580U 90037B 11141.52824966 .00000829 00000-0 50076-4 0 7689 2 20580 028.4697 190.5929 0003629 197.1847 162.8577 15.01360918955644 ISS (ZARYA) 1 25544U 98067A 11143.51517586 .00028469 00000-0 18724-3 0 4032 2 25544 051.6482 287.3354 0003268 308.8570 095.5970 15.75445535717026 CXO 1 25867U 99040B 11137.29107148 .00000000 00000-0 10000-3 0 6086 2 25867 069.1484 033.7317 8586353 276.5020 004.3795 00.37807590 7651 ____________________________________________________________________ These 2-Line ...Continue Reading

[list_settings.list_name] Current TLEs

May 22nd 2011 PDT

HST 1 20580U 90037B 11141.52824966 .00000829 00000-0 50076-4 0 7689 2 20580 028.4697 190.5929 0003629 197.1847 162.8577 15.01360918955644 ISS (ZARYA) 1 25544U 98067A 11142.50597818 .00021563 00000-0 14333-3 0 3967 2 25544 051.6485 292.5275 0003338 304.7836 132.1453 15.75384367716867 CXO 1 25867U 99040B 11137.29107148 .00000000 00000-0 10000-3 0 6086 2 25867 069.1484 033.7317 8586353 276.5020 004.3795 00.37807590 7651 ____________________________________________________________________ These 2-Line ...Continue Reading

[list_settings.list_name] Current TLEs

May 20th 2011 PDT

HST 1 20580U 90037B 11138.47037934 .00000926 00000-0 57427-4 0 7674 2 20580 028.4697 210.5697 0003782 166.1084 193.9499 15.01357299955183 ISS (ZARYA) 1 25544U 98067A 11140.20788194 .00027219 00000-0 18054-3 0 3857 2 25544 051.6491 304.3482 0003196 293.4276 061.7703 15.75276688716490 CXO 1 25867U 99040B 11137.29107148 .00000000 00000-0 10000-3 0 6086 2 25867 069.1484 033.7317 8586353 276.5020 004.3795 00.37807590 7651 ____________________________________________________________________ These 2-Line ...Continue Reading
  • This mailing list is a public mailing list - anyone may join or leave, at any time.
  • This mailing list is announce-only.

International Space Station (ISS) / Hubble Space Telescope (HST) / Chandra X-Ray Observatory Orbital Data via EMAIL

Privacy Policy:

Private list